Tracking 23726 objects as of 25-Sep-2021
HD Live streaming from Space Station
objects crossing your sky now

STTW-T1

Track STTW-T1 now!
10-day predictions
STTW-T1 is classified as:


NORAD ID: 14670
Int'l Code: 1984-008A
Perigee: 480.0 km
Apogee: 6,322.8 km
Inclination: 36.1 °
Period: 160.2 minutes
Semi major axis: 9772 km
RCS: 3.9341 m2 (large)
Launch date: January 29, 1984
Source: People's Republic of China (PRC)
Launch site: Xichang Space Center, China (XSC)
aabbcc
Your satellite tracking list
Your tracking list is empty




NASA's NSSDC Master Catalog

Two Line Element Set (TLE):
1 14670U 84008A   21267.10454107  .00000294  00000-0  16665-3 0  9990
2 14670  36.1084 189.2099 2989437 132.4233 257.1191  8.98673440228333
Source of the keplerian elements: AFSPC